Time,TemperatureF,DewpointF,PressureIn,WindDirection,WindDirectionDegrees,WindSpeedMPH,WindSpeedGustMPH,Humidity,HourlyPrecipIn,Conditions,Clouds,dailyrainin,SoftwareType,DateUTC
2013-02-22 00:02:00,23.0,15.0,30.16,North,6,5.0,-999.0,72,0.00,,,-99.99,,2013-02-22 05:02:00,
2013-02-22 00:12:00,23.0,15.0,30.16,NW,304,3.0,-999.0,71,0.00,,,-99.99,,2013-02-22 05:12:00,
2013-02-22 00:22:00,23.0,15.0,30.16,NW,304,3.0,-999.0,71,0.00,,,-99.99,,2013-02-22 05:22:00,
2013-02-22 00:32:00,22.0,14.0,30.18,West,263,8.0,-999.0,72,0.00,,,-99.99,,2013-02-22 05:32:00,
2013-02-22 00:42:00,23.0,16.0,30.19,WNW,290,5.0,-999.0,73,0.00,,,-99.99,,2013-02-22 05:42:00,
2013-02-22 00:52:00,23.0,16.0,30.19,WNW,290,5.0,-999.0,73,0.00,,,-99.99,,2013-02-22 05:52:00,
2013-02-22 01:01:00,23.0,16.0,30.21,West,270,11.0,-999.0,74,0.00,,,-99.99,,2013-02-22 06:01:00,
2013-02-22 01:12:00,23.0,16.0,30.22,NW,312,6.0,-999.0,75,0.00,,,-99.99,,2013-02-22 06:12:00,
2013-02-22 01:22:00,23.0,16.0,30.22,NW,312,6.0,-999.0,75,0.00,,,-99.99,,2013-02-22 06:22:00,
2013-02-22 01:32:00,23.0,16.0,30.23,NNE,17,6.0,-999.0,75,0.00,,,-99.99,,2013-02-22 06:32:00,
2013-02-22 01:42:00,23.0,16.0,30.23,NNE,17,6.0,-999.0,75,0.00,,,-99.99,,2013-02-22 06:42:00,
2013-02-22 01:52:00,24.0,18.0,30.23,WSW,250,5.0,-999.0,76,0.00,,,-99.99,,2013-02-22 06:52:00,
2013-02-22 02:01:00,24.0,18.0,30.23,NNW,330,3.0,-999.0,76,0.00,,,-99.99,,2013-02-22 07:01:00,
2013-02-22 02:11:00,24.0,18.0,30.22,NW,304,7.0,-999.0,76,0.00,,,-99.99,,2013-02-22 07:11:00,
2013-02-22 02:21:00,24.0,18.0,30.22,NW,304,7.0,-999.0,76,0.00,,,-99.99,,2013-02-22 07:21:00,
2013-02-22 02:31:00,23.0,17.0,30.22,WNW,295,4.0,-999.0,76,0.00,,,-99.99,,2013-02-22 07:31:00,
2013-02-22 02:42:00,23.0,17.0,30.23,NW,304,5.0,-999.0,76,0.00,,,-99.99,,2013-02-22 07:42:00,
2013-02-22 02:51:00,23.0,17.0,30.23,NW,304,5.0,-999.0,76,0.00,,,-99.99,,2013-02-22 07:51:00,
2013-02-22 03:01:00,23.0,17.0,30.23,North,0,4.0,-999.0,76,0.00,,,-99.99,,2013-02-22 08:01:00,
2013-02-22 03:11:00,23.0,17.0,30.23,NW,316,4.0,-999.0,78,0.00,,,-99.99,,2013-02-22 08:11:00,
2013-02-22 03:21:00,23.0,17.0,30.23,NW,316,4.0,-999.0,78,0.00,,,-99.99,,2013-02-22 08:21:00,
2013-02-22 03:32:00,23.0,17.0,30.24,WSW,250,4.0,-999.0,78,0.00,,,-99.99,,2013-02-22 08:32:00,
2013-02-22 03:42:00,23.0,17.0,30.24,WSW,250,4.0,-999.0,78,0.00,,,-99.99,,2013-02-22 08:42:00,
2013-02-22 03:52:00,22.0,16.0,30.25,NNE,21,6.0,-999.0,78,0.00,,,-99.99,,2013-02-22 08:52:00,
2013-02-22 04:03:00,22.0,17.0,30.25,NW,312,4.0,-999.0,80,0.00,,,-99.99,,2013-02-22 09:03:00,
2013-02-22 04:11:00,22.0,16.0,30.26,NW,312,6.0,-999.0,79,0.00,,,-99.99,,2013-02-22 09:11:00,
2013-02-22 04:21:00,22.0,16.0,30.26,NW,312,6.0,-999.0,79,0.00,,,-99.99,,2013-02-22 09:21:00,
2013-02-22 04:32:00,22.0,16.0,30.27,WNW,295,3.0,-999.0,78,0.00,,,-99.99,,2013-02-22 09:32:00,
2013-02-22 04:42:00,22.0,17.0,30.27,NW,312,2.0,-999.0,81,0.00,,,-99.99,,2013-02-22 09:42:00,
2013-02-22 04:52:00,22.0,17.0,30.27,NW,312,2.0,-999.0,81,0.00,,,-99.99,,2013-02-22 09:52:00,
2013-02-22 05:01:00,21.0,16.0,30.27,West,267,1.0,-999.0,81,0.00,,,-99.99,,2013-02-22 10:01:00,
2013-02-22 05:11:00,21.0,16.0,30.27,NW,316,6.0,-999.0,80,0.00,,,-99.99,,2013-02-22 10:11:00,
2013-02-22 05:21:00,21.0,16.0,30.27,NW,316,6.0,-999.0,80,0.00,,,-99.99,,2013-02-22 10:21:00,
2013-02-22 05:32:00,21.0,16.0,30.27,West,267,3.0,-999.0,81,0.00,,,-99.99,,2013-02-22 10:32:00,
2013-02-22 05:42:00,21.0,16.0,30.28,NNW,335,3.0,-999.0,82,0.00,,,-99.99,,2013-02-22 10:42:00,
2013-02-22 05:52:00,21.0,16.0,30.28,NNW,335,3.0,-999.0,82,0.00,,,-99.99,,2013-02-22 10:52:00,
2013-02-22 06:01:00,21.0,17.0,30.28,West,267,2.0,-999.0,83,0.00,,,-99.99,,2013-02-22 11:01:00,
2013-02-22 06:11:00,21.0,17.0,30.28,West,267,2.0,-999.0,83,0.00,,,-99.99,,2013-02-22 11:11:00,
2013-02-22 06:21:00,21.0,17.0,30.28,West,267,2.0,-999.0,83,0.00,,,-99.99,,2013-02-22 11:21:00,
2013-02-22 06:32:00,21.0,17.0,30.30,WNW,295,3.0,-999.0,83,0.00,,,-99.99,,2013-02-22 11:32:00,
2013-02-22 06:42:00,21.0,16.0,30.31,West,267,3.0,-999.0,82,0.00,,,-99.99,,2013-02-22 11:42:00,
2013-02-22 06:52:00,21.0,16.0,30.31,West,267,3.0,-999.0,82,0.00,,,-99.99,,2013-02-22 11:52:00,
2013-02-22 07:02:00,21.0,17.0,30.35,West,267,3.0,-999.0,84,0.00,,,-99.99,,2013-02-22 12:02:00,
2013-02-22 07:11:00,21.0,17.0,30.35,West,267,3.0,-999.0,84,0.00,,,-99.99,,2013-02-22 12:11:00,
2013-02-22 07:22:00,21.0,18.0,30.36,SE,127,1.0,-999.0,87,0.00,,,-99.99,,2013-02-22 12:22:00,
2013-02-22 07:32:00,22.0,18.0,30.37,WNW,302,7.0,-999.0,86,0.00,,,-99.99,,2013-02-22 12:32:00,
2013-02-22 07:42:00,22.0,18.0,30.37,WNW,302,7.0,-999.0,86,0.00,,,-99.99,,2013-02-22 12:42:00,
2013-02-22 07:52:00,24.0,20.0,30.36,NW,325,3.0,-999.0,85,0.00,,,-99.99,,2013-02-22 12:52:00,
2013-02-22 08:02:00,26.0,21.0,30.37,NNE,23,5.0,-999.0,81,0.00,,,-99.99,,2013-02-22 13:02:00,
2013-02-22 08:11:00,28.0,22.0,30.37,NNE,13,3.0,-999.0,78,0.00,,,-99.99,,2013-02-22 13:11:00,
2013-02-22 08:22:00,28.0,22.0,30.37,NNE,13,3.0,-999.0,78,0.00,,,-99.99,,2013-02-22 13:22:00,
2013-02-22 08:32:00,29.0,22.0,30.37,North,6,8.0,-999.0,75,0.00,,,-99.99,,2013-02-22 13:32:00,
2013-02-22 08:42:00,30.0,22.0,30.37,NNW,346,16.0,-999.0,71,0.00,,,-99.99,,2013-02-22 13:42:00,
2013-02-22 08:52:00,30.0,22.0,30.37,NNW,346,16.0,-999.0,71,0.00,,,-99.99,,2013-02-22 13:52:00,
2013-02-22 09:01:00,31.0,22.0,30.37,NNW,342,4.0,-999.0,69,0.00,,,-99.99,,2013-02-22 14:01:00,
2013-02-22 09:11:00,32.0,22.0,30.36,ENE,66,5.0,-999.0,65,0.00,,,-99.99,,2013-02-22 14:11:00,
2013-02-22 09:21:00,32.0,22.0,30.36,ENE,66,5.0,-999.0,65,0.00,,,-99.99,,2013-02-22 14:21:00,
2013-02-22 09:32:00,34.0,22.0,30.36,NE,35,8.0,-999.0,61,0.00,,,-99.99,,2013-02-22 14:32:00,
2013-02-22 09:42:00,35.0,22.0,30.35,NE,44,11.0,-999.0,58,0.00,,,-99.99,,2013-02-22 14:42:00,
2013-02-22 09:52:00,35.0,22.0,30.35,NE,44,11.0,-999.0,58,0.00,,,-99.99,,2013-02-22 14:52:00,
2013-02-22 10:02:00,35.0,22.0,30.35,NE,41,5.0,-999.0,58,0.00,,,-99.99,,2013-02-22 15:02:00,
2013-02-22 10:11:00,35.0,21.0,30.35,NNE,17,13.0,-999.0,57,0.00,,,-99.99,,2013-02-22 15:11:00,
2013-02-22 10:22:00,35.0,21.0,30.35,NNE,17,13.0,-999.0,57,0.00,,,-99.99,,2013-02-22 15:22:00,
2013-02-22 10:32:00,36.0,22.0,30.35,ENE,58,10.0,-999.0,56,0.00,,,-99.99,,2013-02-22 15:32:00,
2013-02-22 10:42:00,36.0,22.0,30.35,ENE,58,10.0,-999.0,56,0.00,,,-99.99,,2013-02-22 15:42:00,
2013-02-22 10:52:00,37.0,22.0,30.35,North,353,7.0,-999.0,55,0.00,,,-99.99,,2013-02-22 15:52:00,
2013-02-22 11:01:00,37.0,22.0,30.35,ENE,66,4.0,-999.0,54,0.00,,,-99.99,,2013-02-22 16:01:00,
2013-02-22 11:12:00,38.0,23.0,30.36,South,179,1.0,-999.0,54,0.00,,,-99.99,,2013-02-22 16:12:00,
2013-02-22 11:22:00,38.0,23.0,30.36,South,179,1.0,-999.0,54,0.00,,,-99.99,,2013-02-22 16:22:00,
2013-02-22 11:32:00,39.0,23.0,30.35,ENE,73,8.0,-999.0,52,0.00,,,-99.99,,2013-02-22 16:32:00,
2013-02-22 11:42:00,39.0,23.0,30.35,ENE,73,8.0,-999.0,52,0.00,,,-99.99,,2013-02-22 16:42:00,
2013-02-22 11:52:00,38.0,20.0,30.35,NE,44,10.0,-999.0,48,0.00,,,-99.99,,2013-02-22 16:52:00,
2013-02-22 12:01:00,38.0,20.0,30.35,NE,44,10.0,-999.0,48,0.00,,,-99.99,,2013-02-22 17:01:00,
2013-02-22 12:11:00,38.0,21.0,30.33,ENE,66,6.0,-999.0,50,0.00,,,-99.99,,2013-02-22 17:11:00,
2013-02-22 12:21:00,38.0,21.0,30.33,ENE,66,6.0,-999.0,50,0.00,,,-99.99,,2013-02-22 17:21:00,
2013-02-22 12:32:00,39.0,21.0,30.33,North,0,8.0,-999.0,49,0.00,,,-99.99,,2013-02-22 17:32:00,
2013-02-22 12:42:00,40.0,21.0,30.32,NE,44,10.0,-999.0,47,0.00,,,-99.99,,2013-02-22 17:42:00,
2013-02-22 12:52:00,40.0,21.0,30.32,NE,44,10.0,-999.0,47,0.00,,,-99.99,,2013-02-22 17:52:00,
2013-02-22 13:01:00,40.0,21.0,30.32,North,350,5.0,-999.0,46,0.00,,,-99.99,,2013-02-22 18:01:00,
2013-02-22 13:12:00,40.0,21.0,30.32,ENE,63,5.0,-999.0,47,0.00,,,-99.99,,2013-02-22 18:12:00,
2013-02-22 13:22:00,40.0,21.0,30.32,ENE,63,5.0,-999.0,47,0.00,,,-99.99,,2013-02-22 18:22:00,
2013-02-22 13:32:00,41.0,22.0,30.33,NNW,332,5.0,-999.0,46,0.00,,,-99.99,,2013-02-22 18:32:00,
2013-02-22 13:42:00,41.0,22.0,30.33,NNW,332,5.0,-999.0,46,0.00,,,-99.99,,2013-02-22 18:42:00,
2013-02-22 13:52:00,42.0,22.0,30.32,NE,44,8.0,-999.0,44,0.00,,,-99.99,,2013-02-22 18:52:00,
2013-02-22 14:01:00,42.0,24.0,30.32,ESE,111,3.0,-999.0,49,0.00,,,-99.99,,2013-02-22 19:01:00,
2013-02-22 14:11:00,44.0,27.0,30.32,East,94,5.0,-999.0,51,0.00,,,-99.99,,2013-02-22 19:11:00,
2013-02-22 14:21:00,44.0,27.0,30.32,East,94,5.0,-999.0,51,0.00,,,-99.99,,2013-02-22 19:21:00,
2013-02-22 14:31:00,44.0,27.0,30.31,SE,134,5.0,-999.0,51,0.00,,,-99.99,,2013-02-22 19:31:00,
2013-02-22 14:41:00,45.0,28.0,30.31,ESE,121,5.0,-999.0,51,0.00,,,-99.99,,2013-02-22 19:41:00,
2013-02-22 14:52:00,45.0,28.0,30.31,ESE,121,5.0,-999.0,51,0.00,,,-99.99,,2013-02-22 19:52:00,
2013-02-22 15:01:00,45.0,27.0,30.31,SE,146,3.0,-999.0,50,0.00,,,-99.99,,2013-02-22 20:01:00,
2013-02-22 15:11:00,45.0,27.0,30.31,SE,146,3.0,-999.0,50,0.00,,,-99.99,,2013-02-22 20:11:00,
2013-02-22 15:21:00,45.0,28.0,30.32,SE,134,4.0,-999.0,51,0.00,,,-99.99,,2013-02-22 20:21:00,
2013-02-22 15:32:00,44.0,27.0,30.32,SE,128,4.0,-999.0,51,0.00,,,-99.99,,2013-02-22 20:32:00,
2013-02-22 15:41:00,44.0,27.0,30.32,SE,128,4.0,-999.0,51,0.00,,,-99.99,,2013-02-22 20:41:00,
2013-02-22 15:52:00,44.0,27.0,30.32,ESE,121,4.0,-999.0,51,0.00,,,-99.99,,2013-02-22 20:52:00,
2013-02-22 16:01:00,44.0,27.0,30.32,East,98,3.0,-999.0,51,0.00,,,-99.99,,2013-02-22 21:01:00,
2013-02-22 16:11:00,43.0,27.0,30.32,SE,134,9.0,-999.0,52,0.00,,,-99.99,,2013-02-22 21:11:00,
2013-02-22 16:21:00,43.0,27.0,30.32,SE,134,9.0,-999.0,52,0.00,,,-99.99,,2013-02-22 21:21:00,
2013-02-22 16:32:00,42.0,27.0,30.32,SE,146,3.0,-999.0,54,0.00,,,-99.99,,2013-02-22 21:32:00,
2013-02-22 16:42:00,41.0,26.0,30.31,ESE,111,4.0,-999.0,54,0.00,,,-99.99,,2013-02-22 21:42:00,
2013-02-22 16:52:00,41.0,26.0,30.31,ESE,111,4.0,-999.0,54,0.00,,,-99.99,,2013-02-22 21:52:00,
2013-02-22 17:01:00,40.0,26.0,30.31,SE,138,3.0,-999.0,56,0.00,,,-99.99,,2013-02-22 22:01:00,
2013-02-22 17:11:00,40.0,26.0,30.30,SE,131,3.0,-999.0,57,0.00,,,-99.99,,2013-02-22 22:11:00,
2013-02-22 17:21:00,40.0,26.0,30.30,SE,131,3.0,-999.0,57,0.00,,,-99.99,,2013-02-22 22:21:00,
2013-02-22 17:32:00,39.0,25.0,30.30,SSE,149,5.0,-999.0,58,0.00,,,-99.99,,2013-02-22 22:32:00,
2013-02-22 17:42:00,38.0,25.0,30.32,SE,135,2.0,-999.0,58,0.00,,,-99.99,,2013-02-22 22:42:00,
2013-02-22 17:52:00,38.0,25.0,30.32,SE,135,2.0,-999.0,58,0.00,,,-99.99,,2013-02-22 22:52:00,
2013-02-22 18:01:00,38.0,25.0,30.31,SE,134,2.0,-999.0,59,0.00,,,-99.99,,2013-02-22 23:01:00,
2013-02-22 18:11:00,37.0,24.0,30.32,SE,134,2.0,-999.0,60,0.00,,,-99.99,,2013-02-22 23:11:00,
2013-02-22 18:21:00,37.0,24.0,30.32,SE,134,2.0,-999.0,60,0.00,,,-99.99,,2013-02-22 23:21:00,
2013-02-22 18:32:00,37.0,25.0,30.32,SSE,160,3.0,-999.0,61,0.00,,,-99.99,,2013-02-22 23:32:00,
2013-02-22 18:42:00,37.0,25.0,30.32,SSE,160,3.0,-999.0,61,0.00,,,-99.99,,2013-02-22 23:42:00,
2013-02-22 18:52:00,36.0,24.0,30.32,South,179,2.0,-999.0,62,0.00,,,-99.99,,2013-02-22 23:52:00,
2013-02-22 19:02:00,36.0,25.0,30.32,South,179,3.0,-999.0,63,0.00,,,-99.99,,2013-02-23 00:02:00,
2013-02-22 19:11:00,35.0,24.0,30.32,South,179,3.0,-999.0,64,0.00,,,-99.99,,2013-02-23 00:11:00,
2013-02-22 19:21:00,35.0,24.0,30.32,South,179,3.0,-999.0,64,0.00,,,-99.99,,2013-02-23 00:21:00,
2013-02-22 19:32:00,35.0,24.0,30.33,SSW,211,4.0,-999.0,65,0.00,,,-99.99,,2013-02-23 00:32:00,
2013-02-22 19:42:00,35.0,24.0,30.33,SSW,211,4.0,-999.0,65,0.00,,,-99.99,,2013-02-23 00:42:00,
2013-02-22 19:51:00,34.0,25.0,30.33,South,183,6.0,-999.0,69,0.00,,,-99.99,,2013-02-23 00:51:00,
2013-02-22 20:01:00,34.0,25.0,30.33,SSW,207,5.0,-999.0,69,0.00,,,-99.99,,2013-02-23 01:01:00,
2013-02-22 20:11:00,34.0,26.0,30.33,South,179,3.0,-999.0,71,0.00,,,-99.99,,2013-02-23 01:11:00,
2013-02-22 20:21:00,34.0,26.0,30.33,South,179,3.0,-999.0,71,0.00,,,-99.99,,2013-02-23 01:21:00,
2013-02-22 20:32:00,34.0,25.0,30.32,South,179,4.0,-999.0,70,0.00,,,-99.99,,2013-02-23 01:32:00,
2013-02-22 20:42:00,34.0,25.0,30.32,South,179,4.0,-999.0,70,0.00,,,-99.99,,2013-02-23 01:42:00,
2013-02-22 20:52:00,33.0,25.0,30.33,SSW,197,3.0,-999.0,72,0.00,,,-99.99,,2013-02-23 01:52:00,
2013-02-22 21:01:00,33.0,25.0,30.34,SW,224,3.0,-999.0,72,0.00,,,-99.99,,2013-02-23 02:01:00,
2013-02-22 21:11:00,33.0,25.0,30.34,SSW,211,5.0,-999.0,72,0.00,,,-99.99,,2013-02-23 02:11:00,
2013-02-22 21:21:00,33.0,25.0,30.34,SSW,211,5.0,-999.0,72,0.00,,,-99.99,,2013-02-23 02:21:00,
2013-02-22 21:32:00,33.0,25.0,30.33,South,179,2.0,-999.0,72,0.00,,,-99.99,,2013-02-23 02:32:00,
2013-02-22 21:42:00,33.0,25.0,30.33,South,179,2.0,-999.0,72,0.00,,,-99.99,,2013-02-23 02:42:00,
2013-02-22 21:52:00,33.0,25.0,30.33,SSW,210,3.0,-999.0,71,0.00,,,-99.99,,2013-02-23 02:52:00,
2013-02-22 22:01:00,33.0,25.0,30.33,SSW,210,3.0,-999.0,72,0.00,,,-99.99,,2013-02-23 03:01:00,
2013-02-22 22:11:00,33.0,25.0,30.33,South,191,2.0,-999.0,72,0.00,,,-99.99,,2013-02-23 03:11:00,
2013-02-22 22:21:00,33.0,25.0,30.33,South,191,2.0,-999.0,72,0.00,,,-99.99,,2013-02-23 03:21:00,
2013-02-22 22:32:00,33.0,25.0,30.33,South,184,5.0,-999.0,73,0.00,,,-99.99,,2013-02-23 03:32:00,
2013-02-22 22:42:00,33.0,25.0,30.33,South,184,5.0,-999.0,73,0.00,,,-99.99,,2013-02-23 03:42:00,
2013-02-22 22:51:00,33.0,25.0,30.33,South,179,3.0,-999.0,73,0.00,,,-99.99,,2013-02-23 03:51:00,
2013-02-22 23:01:00,33.0,25.0,30.32,South,179,3.0,-999.0,73,0.00,,,-99.99,,2013-02-23 04:01:00,
2013-02-22 23:11:00,33.0,26.0,30.32,SSW,198,3.0,-999.0,74,0.00,,,-99.99,,2013-02-23 04:11:00,
2013-02-22 23:21:00,33.0,26.0,30.32,SSW,198,3.0,-999.0,74,0.00,,,-99.99,,2013-02-23 04:21:00,
2013-02-22 23:32:00,33.0,26.0,30.32,SW,224,3.0,-999.0,74,0.00,,,-99.99,,2013-02-23 04:32:00,
2013-02-22 23:41:00,33.0,26.0,30.32,SW,224,3.0,-999.0,74,0.00,,,-99.99,,2013-02-23 04:41:00,
2013-02-22 23:52:00,33.0,26.0,30.32,SW,224,2.0,-999.0,75,0.00,,,-99.99,,2013-02-23 04:52:00,